Probability
0 0 0 0 0 0 0 0 0 0 0 0 0 0 0 0 0 0 0 0 0 0 2 8 15 17 14 11 8 5 2 0 0 0 0 0 0 0 0 0 0 0 0 0 0 0 0 0 0
0 0 0 0 0 0 0 0 0 0 0 0 0 0 0 0 0 0 0 0 0 0 2 9 15 16 13 10 8 6 3 1 0 0 0 0 0 0 0 0 0 0 0 0 0 0 0 0 0
0 0 0 0 0 0 0 0 0 0 0 0 0 0 0 0 0 0 0 0 0 1 3 10 16 16 12 9 8 6 4 1 0 0 0 0 0 0 0 0 0 0 0 0 0 0 0 0 0
0 0 0 0 0 0 0 0 0 0 0 0 0 0 0 0 0 0 0 0 0 1 4 10 15 15 11 8 7 6 5 3 1 0 0 0 0 0 0 0 0 0 0 0 0 0 0 0 0
0 0 0 0 0 0 0 0 0 0 0 0 0 0 0 0 0 0 1 2 1 1 4 10 15 14 10 7 7 6 6 3 1 0 0 0 0 0 0 0 0 0 0 0 0 0 0 0 0
0 0 0 0 0 0 0 0 0 0 0 0 0 0 0 0 0 1 3 3 2 1 3 9 13 12 8 7 6 6 5 3 1 0 0 0 0 0 0 0 0 0 0 0 0 0 0 0 0
0 0 0 0 0 0 0 0 0 0 0 0 0 0 0 0 2 3 4 4 3 2 4 7 10 9 7 6 5 4 3 1 0 0 0 0 0 0 0 0 0 0 0 0 0 0 0 0 0
0 0 0 0 0 0 0 0 0 0 0 0 0 0 0 1 4 6 6 4 3 3 5 7 7 6 4 4 3 3 2 1 0 0 0 0 0 0 0 0 0 0 0 0 0 0 0 0 0
0 0 0 0 0 0 0 0 0 0 0 0 0 0 0 2 6 8 7 5 3 4 5 7 7 5 3 3 2 1 1 0 0 0 0 0 0 0 0 0 0 0 0 0 0 0 0 0 0
0 0 0 0 0 0 0 0 0 0 0 0 0 0 1 4 7 9 8 6 5 4 6 8 7 5 3 3 2 1 0 0 0 0 0 0 0 0 0 0 0 0 0 0 0 0 0 0 0
0 0 0 0 0 0 0 0 0 0 0 0 0 0 2 5 8 9 10 8 7 6 5 6 7 5 3 3 2 1 0 0 0 0 0 0 0 0 0 0 0 0 0 0 0 0 0 0 0
0 0 0 0 0 0 0 0 0 0 0 0 0 1 3 6 7 8 10 10 9 8 6 6 6 4 3 3 1 0 0 0 0 0 0 0 0 0 0 0 0 0 0 0 0 0 0 0 0
0 0 0 0 0 0 0 0 0 0 0 0 0 1 3 5 6 7 8 10 11 9 7 6 5 4 3 2 1 0 0 0 0 0 0 0 0 0 0 0 0 0 0 0 0 0 0 0 0
0 0 0 0 0 0 0 0 0 0 0 0 0 1 2 3 4 6 7 9 11 10 8 7 6 4 2 1 0 0 0 0 0 0 0 0 0 0 0 0 0 0 0 0 0 0 0 0 0
0 0 0 0 0 0 0 0 0 0 0 0 0 0 0 1 2 4 6 8 10 10 8 7 5 3 1 0 0 0 0 0 0 0 0 0 0 0 0 0 0 0 0 0 0 0 0 0 0
0 0 0 0 0 0 0 0 0 0 0 0 0 0 0 0 0 2 5 8 9 10 9 8 5 2 0 0 0 0 0 0 0 0 0 0 0 0 0 0 0 0 0 0 0 0 0 0 0
0 0 0 0 0 0 0 0 0 0 0 0 0 0 0 0 0 1 4 6 9 10 10 9 7 4 1 0 0 0 0 0 0 0 0 0 0 0 0 0 0 0 0 0 0 0 0 0 0
0 0 0 0 0 0 0 0 0 0 0 0 0 0 0 0 0 0 2 5 8 10 10 10 9 8 4 1 0 0 0 0 0 0 0 0 0 0 0 0 0 0 0 0 0 0 0 0 0
0 0 0 0 0 0 0 0 0 0 0 0 0 0 0 0 0 0 1 3 7 9 10 10 10 11 8 4 1 0 0 0 0 0 0 0 0 0 0 0 0 0 0 0 0 0 0 0 0
0 0 0 0 0 0 0 0 0 0 0 0 0 0 0 0 0 0 0 2 5 8 9 9 10 12 11 6 2 0 0 0 0 0 0 0 0 0 0 0 0 0 0 0 0 0 0 0 0
0 0 0 0 0 0 0 0 0 0 0 0 0 0 0 0 0 0 0 1 3 6 9 10 11 12 12 8 3 0 0 0 0 0 0 0 0 0 0 0 0 0 0 0 0 0 0 0 0
0 0 0 0 0 0 0 0 0 0 0 0 0 0 0 0 0 0 0 0 1 5 10 11 12 13 13 10 5 1 0 0 0 0 0 0 0 0 0 0 0 0 0 0 0 0 0 0 0
0 0 0 0 0 0 0 0 0 0 0 0 0 0 0 0 0 0 0 0 1 4 9 12 12 12 13 11 7 2 0 0 0 0 0 0 0 0 0 0 0 0 0 0 0 0 0 0 0
0 0 0 0 0 0 0 0 0 0 0 0 0 0 0 0 0 0 0 0 1 3 7 10 11 10 12 11 8 5 2 0 0 0 0 0 0 0 0 0 0 0 0 0 0 0 0 0 0
0 0 0 0 0 0 0 0 0 0 0 0 0 0 0 0 0 0 0 0 1 2 6 9 10 9 10 11 10 7 3 1 0 0 0 0 0 0 0 0 0 0 0 0 0 0 0 0 0
0 0 0 0 0 0 0 0 0 0 0 0 0 0 0 0 0 0 0 0 1 3 6 7 9 9 9 10 10 8 5 3 1 0 0 0 0 0 0 0 0 0 0 0 0 0 0 0 0
0 0 0 0 0 0 0 0 0 0 0 0 0 0 0 0 0 0 0 0 1 3 6 7 8 8 8 8 9 8 6 4 2 1 0 0 0 0 0 0 0 0 0 0 0 0 0 0 0
0 0 0 0 0 0 0 0 0 0 0 0 0 0 0 0 0 0 0 0 0 2 6 8 8 8 8 7 7 7 6 5 4 1 0 0 0 0 0 0 0 0 0 0 0 0 0 0 0
0 0 0 0 0 0 0 0 0 0 0 0 0 0 0 0 0 0 0 0 1 3 6 8 8 8 7 6 6 6 5 5 4 2 0 0 0 0 0 0 0 0 0 0 0 0 0 0 0
0 0 0 0 0 0 0 0 0 0 0 0 0 0 0 0 0 0 0 0 1 3 5 7 9 8 6 5 6 6 5 5 4 2 0 0 0 0 0 0 0 0 0 0 0 0 0 0 0
Wind_Speed
4 2 3 4 4 1 6 8 5 5 5 6 5 4 6 6 6 5 4 13 16 18 17 21 24 23 22 22 21 20 20 19 19 18 18 18 17 17 16 16 16 16 16 16 16 15 15 15 14
1 3 4 4 4 5 8 8 10 14 9 2 1 2 2 2 1 7 8 13 19 19 16 17 24 23 23 22 22 21 20 20 19 19 18 18 17 17 16 16 16 16 16 15 15 15 14 14 14
1 3 4 4 6 9 9 7 13 13 10 6 2 0 4 5 6 8 9 18 18 17 15 18 24 24 23 23 22 21 20 20 19 19 18 18 17 17 16 16 15 15 15 15 14 14 14 13 13
2 2 2 4 13 12 9 6 3 5 5 5 5 2 1 3 7 8 16 19 18 15 14 18 24 24 23 23 22 21 21 20 19 19 18 17 17 17 16 15 15 15 14 14 14 13 13 13 13
2 3 4 9 15 9 9 10 7 7 5 3 3 4 1 2 7 16 19 20 19 15 13 17 24 24 23 23 22 21 21 20 19 19 18 17 17 17 16 15 15 15 14 14 14 13 13 12 12
2 3 7 14 15 10 9 9 8 9 8 6 2 4 1 3 12 17 18 17 17 16 14 16 23 23 23 23 22 21 21 20 20 19 18 18 17 16 16 15 14 14 14 13 13 13 12 12 12
5 5 10 10 11 12 12 8 8 10 11 10 6 5 2 4 9 15 15 15 15 15 13 12 15 17 21 21 21 21 20 20 20 19 18 17 17 16 16 15 14 14 13 13 12 12 11 11 11
5 4 9 10 11 12 7 6 7 10 10 7 7 10 8 9 11 13 14 14 13 12 12 11 12 12 12 14 18 19 19 19 19 18 16 16 16 15 15 13 14 13 13 12 11 11 10 10 9
4 8 15 13 10 8 4 6 6 5 5 3 3 7 9 17 17 17 15 14 14 14 11 12 11 11 10 10 14 15 16 16 16 14 16 12 7 7 8 10 12 13 12 11 10 9 8 7 7
8 14 19 8 6 5 5 6 5 3 3 2 2 2 11 19 21 21 21 21 20 19 16 13 13 12 11 10 9 8 8 9 8 7 8 6 5 5 7 10 11 12 11 10 9 8 6 4 3
8 13 9 9 9 7 8 10 6 4 6 6 6 8 15 18 20 21 21 21 21 20 18 15 14 13 11 8 8 5 5 6 7 8 8 6 5 4 4 3 5 5 6 3 4 3 2 2 2
9 10 9 9 9 10 10 9 9 8 10 7 9 15 18 20 21 21 21 19 17 18 18 16 15 13 11 9 8 7 6 6 6 7 9 6 4 4 4 3 3 3 2 2 2 1 1 1 2
14 13 12 12 12 12 11 13 11 13 9 4 8 13 18 20 19 17 16 16 17 18 18 18 16 15 13 10 8 8 8 7 7 7 7 8 6 6 5 4 3 3 2 3 2 2 2 2 2
9 10 11 11 12 10 13 14 11 15 5 5 9 13 15 18 17 14 14 16 18 19 19 18 18 16 14 11 10 9 8 8 8 7 8 9 7 6 6 5 4 4 3 3 3 3 3 2 2
8 10 13 13 12 8 7 14 16 13 6 7 10 12 13 13 14 17 20 19 20 20 19 19 19 17 16 14 12 10 8 8 8 8 9 9 8 8 7 6 5 4 4 4 3 3 2 2 2
6 9 11 11 11 10 10 18 13 9 8 10 10 10 12 13 15 16 18 17 17 18 19 19 17 18 17 14 12 9 9 9 8 8 8 10 10 9 7 6 5 5 4 4 3 3 3 2 2
7 10 12 11 10 8 11 13 9 8 10 11 10 11 12 12 13 13 15 16 18 19 20 20 19 20 18 15 12 10 10 10 8 8 8 10 11 10 8 6 5 6 4 4 4 3 3 3 2
8 8 9 11 6 10 13 13 10 7 10 12 11 11 12 14 16 15 16 17 17 18 18 19 18 18 16 12 9 8 9 9 8 9 9 11 10 10 8 6 7 7 5 4 4 4 3 2 3
8 9 11 10 7 8 13 15 14 10 9 11 11 11 12 15 16 15 17 17 17 17 18 19 18 18 15 13 13 12 12 10 9 9 11 12 11 11 9 7 7 7 6 6 6 4 3 2 2
11 13 14 12 9 9 11 15 13 12 13 11 13 14 14 13 12 13 15 16 19 21 21 21 20 20 19 15 13 10 8 7 7 7 9 12 12 12 10 9 8 7 6 6 6 4 3 2 3
11 12 11 11 9 8 9 13 14 12 12 12 12 13 14 16 16 15 16 17 19 21 23 21 22 21 20 16 9 7 5 4 6 9 10 11 12 12 10 10 9 8 7 7 7 6 6 4 2
12 9 10 10 7 6 7 9 11 11 13 15 15 13 14 14 15 15 16 17 19 22 22 22 23 22 20 17 15 16 13 12 13 10 9 10 12 12 11 11 10 9 7 7 7 6 5 6 4
8 6 7 8 6 7 7 8 9 7 13 16 16 15 14 14 14 15 17 18 18 20 20 20 21 21 20 19 19 18 14 11 6 7 9 10 10 11 12 11 10 10 8 8 8 7 6 5 5
4 3 4 4 3 9 11 10 10 9 15 15 15 15 15 14 13 14 15 16 16 17 18 18 20 21 21 21 20 20 18 13 11 11 12 10 8 9 12 11 11 10 9 9 8 8 8 6 5
4 3 2 3 5 8 7 9 12 11 11 15 16 15 14 12 11 11 13 14 15 16 18 18 20 21 21 22 21 21 19 17 16 14 13 11 9 9 13 11 11 10 9 9 8 7 7 7 6
6 6 5 4 5 5 5 11 10 10 9 9 12 13 12 12 12 12 13 15 16 17 18 19 21 20 21 22 21 19 18 14 12 13 12 13 11 10 11 11 10 10 9 9 8 6 7 6 6
4 6 4 2 3 4 6 7 8 6 7 8 9 9 11 12 13 13 12 13 15 17 19 20 21 19 20 21 20 18 17 16 14 13 11 10 8 8 10 11 10 9 9 9 9 6 7 6 6
4 3 3 3 3 5 6 6 5 4 6 7 7 9 9 9 10 11 11 12 13 16 17 17 19 20 18 19 18 15 17 17 14 12 13 12 10 10 10 11 10 10 9 9 9 6 6 7 6
4 4 3 4 4 3 4 6 4 5 6 7 8 7 8 8 9 9 10 10 11 11 13 15 15 15 16 17 16 15 15 15 14 13 14 13 11 11 12 12 11 10 10 9 9 8 8 8 6
4 6 5 4 5 4 4 9 4 4 5 5 7 7 6 6 6 6 7 7 8 10 11 13 14 14 15 15 15 15 14 14 14 14 13 12 12 12 12 11 11 10 10 10 10 9 8 8 8
Wind_Direction
249 105 89 67 67 83 236 236 231 252 240 221 209 170 170 177 174 191 133 140 139 152 159 157 155 152 148 145 141 139 136 134 131 129 127 125 122 118 115 113 110 106 103 101 99 98 97 96 95
142 119 75 78 137 214 245 229 227 237 232 256 238 169 144 196 151 126 136 150 146 153 156 156 155 152 149 146 144 142 139 136 134 132 130 128 125 121 118 114 111 109 107 105 103 102 100 99 96
161 140 124 138 191 207 229 225 227 242 248 245 248 190 167 169 155 159 155 148 146 153 154 157 155 152 150 148 146 144 142 140 138 135 133 131 127 124 121 117 115 113 111 109 107 105 105 101 95
123 101 119 193 228 222 220 233 248 283 286 234 185 154 168 176 168 158 143 146 146 151 153 158 155 152 151 150 149 147 145 143 140 138 136 133 130 126 122 121 120 118 115 113 111 109 106 103 98
100 139 201 231 236 237 237 250 271 280 273 265 160 159 180 333 134 136 144 147 149 151 154 158 156 154 153 152 151 149 147 145 143 141 139 137 133 129 126 124 124 123 121 118 115 112 109 105 99
167 170 207 228 235 242 246 244 256 261 262 263 180 151 183 130 136 143 147 149 150 152 155 158 157 155 155 154 153 151 150 148 146 145 142 140 137 134 132 130 128 125 121 119 116 114 111 108 101
188 197 224 229 237 244 242 233 232 241 251 241 176 140 144 156 151 144 144 144 148 152 155 157 157 157 157 156 155 154 153 151 150 148 145 142 141 139 137 134 131 127 125 122 120 117 115 109 100
191 205 231 227 230 241 234 228 226 219 237 230 162 155 179 184 150 137 137 141 148 153 156 155 154 154 155 156 156 155 154 153 152 149 144 143 144 142 140 137 136 132 130 127 124 121 116 108 99
185 221 229 219 218 235 227 242 255 236 218 233 198 183 179 148 140 138 142 147 156 161 162 157 154 153 152 153 157 155 153 153 150 147 145 140 132 131 136 140 140 138 136 133 130 127 119 106 94
203 227 231 221 214 234 258 260 269 288 269 274 357 52 131 146 150 154 160 163 167 169 168 163 159 156 155 158 154 153 151 149 144 144 141 132 130 135 139 148 147 146 143 139 138 136 122 94 72
215 233 241 240 246 260 271 274 275 243 251 224 184 159 150 159 161 165 170 171 172 170 169 168 164 161 160 156 155 153 147 146 146 146 144 140 135 138 135 140 145 142 139 125 128 110 91 97 105
243 248 241 248 252 256 261 268 276 250 241 229 180 163 163 168 172 174 174 173 170 171 173 169 167 166 164 159 161 157 155 156 157 158 153 147 144 147 149 147 147 143 139 142 126 125 137 131 131
239 250 251 253 253 253 261 259 265 266 262 234 174 166 175 178 179 179 174 170 169 174 174 173 171 170 167 163 166 165 164 165 164 162 162 156 155 161 161 161 159 163 159 158 155 159 159 149 136
243 256 261 260 258 253 252 260 253 258 243 201 179 181 187 187 180 173 170 172 175 177 176 174 175 173 170 171 172 169 169 168 168 169 170 165 164 166 166 166 169 176 175 170 164 165 159 153 135
243 257 264 255 250 244 249 259 243 245 218 211 204 195 194 197 188 183 181 180 179 179 177 176 177 176 175 175 175 172 173 172 175 176 174 171 170 170 169 169 175 182 174 163 150 145 135 132 121
228 234 245 245 232 233 221 248 245 230 214 222 221 211 201 201 199 195 189 184 181 177 177 178 179 178 179 178 177 175 177 177 180 178 177 176 175 172 167 170 180 177 162 154 149 144 130 127 125
215 222 235 250 225 221 217 246 250 223 222 229 223 219 210 205 205 203 196 189 184 181 179 179 180 180 181 178 176 175 177 181 182 180 179 180 179 175 169 173 177 169 157 157 159 147 140 143 149
213 219 233 238 230 220 234 249 257 234 222 227 223 219 218 211 209 201 198 193 188 184 182 181 180 180 178 175 171 172 178 183 183 184 182 179 180 176 171 170 173 165 159 161 157 149 139 146 155
255 254 254 253 258 247 245 250 250 240 235 234 232 222 220 219 215 204 198 193 188 185 184 183 181 179 176 178 180 182 186 185 186 187 183 182 180 177 175 173 171 170 170 170 161 147 146 148 134
254 256 260 271 254 256 257 257 256 241 232 228 229 227 222 224 220 209 201 194 190 188 188 186 185 182 183 186 187 184 176 179 181 182 185 185 182 180 181 175 176 174 167 166 167 152 147 161 155
253 249 249 259 281 261 266 267 253 248 237 233 229 226 223 219 217 211 203 198 192 191 190 189 189 186 187 183 171 154 146 150 175 189 191 191 186 183 183 179 176 177 174 178 179 169 161 170 191
252 248 257 261 264 262 227 259 254 240 239 235 233 229 226 223 218 212 204 199 196 194 192 191 189 188 187 180 178 177 182 188 193 187 186 186 187 185 184 180 179 179 180 180 183 178 168 160 179
243 249 254 263 253 263 242 249 263 222 231 232 230 228 226 221 215 211 205 200 198 194 191 191 190 189 187 185 185 186 192 194 175 168 176 184 189 188 186 183 183 183 185 185 183 178 178 173 174
244 231 270 261 240 247 231 229 260 226 221 226 228 227 226 221 217 213 208 199 199 194 190 189 188 190 187 187 188 190 191 183 172 178 184 186 187 190 191 187 187 188 187 187 186 183 182 184 179
194 163 214 225 217 240 209 218 247 236 224 221 225 227 226 221 215 211 207 198 196 192 190 188 188 190 189 189 191 194 193 188 187 186 188 187 186 192 194 190 189 189 189 186 180 181 187 185 185
208 188 196 217 224 259 210 227 249 244 234 229 229 230 228 224 220 213 206 200 195 192 190 188 190 190 189 191 194 194 192 191 194 191 189 192 195 195 188 189 190 189 185 183 181 183 188 185 192
200 213 216 253 270 258 238 256 282 261 252 242 239 235 230 226 222 216 207 200 196 191 191 190 190 190 190 192 193 192 191 192 192 189 188 191 190 184 182 186 187 185 183 183 180 188 189 185 192
210 195 172 201 231 249 259 247 238 259 261 257 247 244 243 238 226 216 207 200 198 194 190 189 191 191 190 190 191 192 192 192 189 185 189 190 186 181 180 185 185 183 183 182 182 184 184 185 193
191 205 211 210 230 237 263 266 230 237 267 274 261 257 251 245 232 216 206 200 193 186 186 187 188 188 188 189 189 188 189 189 185 187 189 188 184 183 184 185 185 184 184 182 184 187 179 186 190
225 212 196 210 237 239 257 269 275 289 296 298 296 290 283 263 239 214 201 187 182 183 182 185 186 185 187 187 185 186 185 183 184 187 186 182 183 184 183 180 182 184 184 184 186 185 182 186 189